Location: Unspecified
(35.7250°N, 0.0000°E)
Time: 20:19:36
(UTC+00:00)

Courier 1B Rocket - Pass Details

Date: 17 August 2020
Orbit: 920 x 1202 km, 28.2° (Epoch: 01 October)

Event Time Altitude Azimuth Distance (km) Brightness Sun altitude
Exits shadow 03:23:44 37° 199° (SSW) 1,410 5.4 -22.0°
Maximum altitude 03:24:09 37° 190° (S) 1,403 5.5 -21.9°
Drops below altitude 10° 03:30:02 10° 124° (SE) 2,703 7.6 -21.0°
Sets 03:32:57 0° 117° (ESE) 3,690 8.4 -20.5°
